Погода в Гауфе

Россия / Омская область     54°47′07″N   73°23′33″E
темп.,
°C
ветер,
м/с
пор.,
м/с
влажн.,
%
обл.,
%
осадки,
мм/ч
давл.,
гПа
погр.,
м
20 января, ср
ср2000:00−26св229516 0.0 102719
03:00−26в349377 0.0 102728
06:00−25в449287 0.0 102684
09:00−24вюв5989100 0.0 1025230
12:00−21в61190100 0.0 1024276
15:00−19вюв71288100 0.0 1021357
18:00−18вюв71397100 1.3 1019435
21:00−17юв61195100 1.1 1016457
21 января, чт
чт2100:00−17юв51095100 1.3 1016268
03:00−16юз5119498 0.1 1015321
06:00−20юз5119571 0.1 1017234
09:00−21юз499563 0.0 1017156
12:00−19юз589382 0.0 1017254
15:00−18юз4893100 0.0 1016293
18:00−21юз3496100 0.0 101572
21:00−21зюз3496100 0.0 1015106
22 января, пт
пт2200:00−22з3395100 0.0 101455
03:00−26зсз339650 0.0 101322
06:00−28з339825 0.0 101327
09:00−29з349813 0.0 101438
12:00−27з369614 0.0 1016161
15:00−25зюз369537 0.0 1016225
18:00−26зюз369664 0.0 1018139
21:00−25зюз3697100 0.1 1020194
23 января, сб
сб2300:00−24зюз349899 0.1 1021112
03:00−25з239890 0.1 102356
06:00−27зсз239987 0.1 102419
09:00−29сз229986 0.0 102719
12:00−29сз359676 0.0 1030133
15:00−29сз35950 0.0 1031195
18:00−32сз349645 0.0 103449
21:00−35сз349665 0.0 103737
24 января, вс
вс2400:00−37зсз349632 0.0 103831
03:00−36зсз339582 0.0 104057
06:00−33зсз229495 0.0 103722
09:00−33юз1193100 0.0 103719
12:00−29юв1290100 0.0 1037155
15:00−28вюв239387 0.0 1037156
18:00−31вюв349443 0.0 103831
21:00−32вюв34950 0.0 103857